When you browse on this site, cookies collect data to enhance your experience and personalize the content and advertising you see.
Visit our Privacy Policy to learn more. By continuing to use the site, you agree to this use of cookies and data.
  • In United Kingdom
  • List of Countries
  • For 7 days
  • Water Temperature
  • Weather Map
  • Weather Widgets
  • user-avatar
    Login

    Hourly Weather Lodz

    Today, 17 September, Tuesday

    Time Temperature Precipitation Wind Pressure Humidity
    00:00 +10°C° 0 mm 4 mps 742 mmHg 77%
    01:00 +9°C° 0 mm 3 mps 742 mmHg 80%
    02:00 +9°C° 0 mm 3 mps 741 mmHg 82%
    03:00 +8°C° 0 mm 3 mps 741 mmHg 85%
    04:00 +7°C° 0 mm 4 mps 741 mmHg 87%
    05:00 +8°C° 0 mm 4 mps 741 mmHg 83%
    06:00 +10°C° 0 mm 4 mps 741 mmHg 80%
    07:00 +9°C° 0 mm 5 mps 741 mmHg 75%
    08:00 +11°C° 0 mm 6 mps 741 mmHg 69%
    09:00 +12°C° 0 mm 7 mps 740 mmHg 62%
    10:00 +14°C° 0 mm 7 mps 740 mmHg 56%
    11:00 +14°C° 0 mm 7 mps 739 mmHg 55%
    12:00 +13°C° 0 mm 8 mps 739 mmHg 55%
    13:00 +13°C° 0 mm 8 mps 738 mmHg 54%
    14:00 +12°C° 0 mm 8 mps 738 mmHg 56%
    15:00 +12°C° 0 mm 7 mps 737 mmHg 57%
    16:00 +12°C° 0 mm 7 mps 737 mmHg 58%
    17:00 +11°C° 1.1 mm 7 mps 737 mmHg 67%
    18:00 +10°C° 1.1 mm 7 mps 737 mmHg 76%
    19:00 +9°C° 1.1 mm 7 mps 737 mmHg 85%
    20:00 +7°C° 0.5 mm 8 mps 737 mmHg 82%
    21:00 +7°C° 0.5 mm 8 mps 737 mmHg 79%
    22:00 +6°C° 0.5 mm 8 mps 737 mmHg 76%
    23:00 +6°C° 0 mm 9 mps 737 mmHg 77%

    Tomorrow, 18 September, Wednesday

    Time Temperature Precipitation Wind Pressure Humidity
    00:00 +5°C° 0 mm 9 mps 737 mmHg 77%
    01:00 +5°C° 0 mm 9 mps 738 mmHg 78%
    02:00 +5°C° 0 mm 10 mps 738 mmHg 78%
    03:00 +5°C° 0 mm 10 mps 738 mmHg 78%
    04:00 +5°C° 0 mm 10 mps 738 mmHg 77%
    05:00 +6°C° 0 mm 10 mps 739 mmHg 77%
    06:00 +6°C° 0 mm 10 mps 740 mmHg 77%
    07:00 +7°C° 0 mm 9 mps 741 mmHg 77%
    08:00 +7°C° 0 mm 9 mps 741 mmHg 72%
    09:00 +8°C° 0 mm 9 mps 742 mmHg 67%
    10:00 +10°C° 0 mm 9 mps 743 mmHg 61%
    11:00 +11°C° 0.1 mm 9 mps 743 mmHg 58%
    12:00 +12°C° 0.1 mm 9 mps 743 mmHg 55%
    13:00 +13°C° 0.1 mm 9 mps 743 mmHg 52%
    14:00 +13°C° 0.3 mm 8 mps 743 mmHg 53%
    15:00 +12°C° 0.3 mm 8 mps 744 mmHg 54%
    16:00 +12°C° 0.3 mm 7 mps 744 mmHg 56%
    17:00 +11°C° 0.2 mm 7 mps 744 mmHg 61%
    18:00 +10°C° 0.2 mm 6 mps 744 mmHg 66%
    19:00 +8°C° 0.2 mm 5 mps 745 mmHg 72%
    20:00 +8°C° 0 mm 5 mps 745 mmHg 73%
    21:00 +7°C° 0 mm 5 mps 746 mmHg 75%
    22:00 +7°C° 0 mm 5 mps 746 mmHg 77%
    23:00 +7°C° 0 mm 5 mps 746 mmHg 75%

    Day after tomorrow, 19 September, Thursday

    Time Temperature Precipitation Wind Pressure Humidity
    00:00 +7°C° 0 mm 5 mps 746 mmHg 74%
    01:00 +7°C° 0 mm 4 mps 746 mmHg 72%
    02:00 +7°C° 0 mm 4 mps 746 mmHg 71%
    03:00 +6°C° 0 mm 4 mps 746 mmHg 69%
    04:00 +6°C° 0 mm 4 mps 746 mmHg 68%
    05:00 +6°C° 0 mm 4 mps 746 mmHg 69%
    06:00 +7°C° 0 mm 5 mps 747 mmHg 70%
    07:00 +7°C° 0 mm 5 mps 747 mmHg 71%
    08:00 +8°C° 0 mm 5 mps 747 mmHg 68%
    09:00 +10°C° 0 mm 5 mps 747 mmHg 65%
    10:00 +12°C° 0 mm 5 mps 748 mmHg 62%
    11:00 +13°C° 0.3 mm 5 mps 747 mmHg 59%
    12:00 +13°C° 0.3 mm 5 mps 747 mmHg 56%
    13:00 +14°C° 0.3 mm 5 mps 747 mmHg 53%
    14:00 +14°C° 0.2 mm 5 mps 747 mmHg 53%
    15:00 +14°C° 0.2 mm 5 mps 747 mmHg 52%
    16:00 +13°C° 0.2 mm 5 mps 747 mmHg 51%
    17:00 +12°C° 0 mm 5 mps 748 mmHg 56%
    18:00 +11°C° 0 mm 4 mps 748 mmHg 61%
    19:00 +9°C° 0 mm 3 mps 748 mmHg 66%
    20:00 +9°C° 0 mm 3 mps 749 mmHg 69%
    21:00 +8°C° 0 mm 3 mps 749 mmHg 71%
    22:00 +8°C° 0 mm 3 mps 749 mmHg 73%
    23:00 +7°C° 0 mm 2 mps 749 mmHg 75%

    20 September, Friday

    Time Temperature Precipitation Wind Pressure Humidity
    00:00 +7°C° 0 mm 2 mps 749 mmHg 77%
    01:00 +6°C° 0 mm 2 mps 749 mmHg 78%
    02:00 +6°C° 0 mm 2 mps 749 mmHg 80%
    03:00 +6°C° 0 mm 2 mps 749 mmHg 82%
    04:00 +5°C° 0 mm 2 mps 749 mmHg 84%
    05:00 +5°C° 0 mm 3 mps 749 mmHg 81%
    06:00 +6°C° 0 mm 4 mps 750 mmHg 78%
    07:00 +6°C° 0 mm 4 mps 750 mmHg 75%
    08:00 +8°C° 0 mm 4 mps 750 mmHg 68%
    09:00 +10°C° 0 mm 5 mps 750 mmHg 60%
    10:00 +13°C° 0 mm 5 mps 751 mmHg 52%
    11:00 +13°C° 0.1 mm 5 mps 750 mmHg 51%
    12:00 +13°C° 0.1 mm 5 mps 750 mmHg 49%
    13:00 +14°C° 0.1 mm 5 mps 750 mmHg 48%
    14:00 +14°C° 0.1 mm 4 mps 750 mmHg 50%
    15:00 +13°C° 0.1 mm 4 mps 750 mmHg 51%
    16:00 +13°C° 0.1 mm 4 mps 750 mmHg 53%
    17:00 +12°C° 0 mm 3 mps 750 mmHg 58%
    18:00 +12°C° 0 mm 2 mps 750 mmHg 62%
    19:00 +9°C° 0 mm 2 mps 751 mmHg 67%
    20:00 +10°C° 0 mm 1 mps 751 mmHg 68%
    21:00 +10°C° 0 mm 1 mps 751 mmHg 69%
    22:00 +9°C° 0 mm 1 mps 751 mmHg 70%
    23:00 +9°C° 0 mm 1 mps 751 mmHg 72%

    21 September, Saturday

    Time Temperature Precipitation Wind Pressure Humidity
    00:00 +8°C° 0 mm 1 mps 751 mmHg 74%
    01:00 +8°C° 0 mm 1 mps 752 mmHg 76%
    02:00 +8°C° 0 mm 1 mps 752 mmHg 78%
    03:00 +8°C° 0 mm 1 mps 752 mmHg 81%
    04:00 +7°C° 0 mm 1 mps 752 mmHg 83%
    05:00 +7°C° 0 mm 2 mps 752 mmHg 82%
    06:00 +8°C° 0 mm 2 mps 752 mmHg 81%
    07:00 +8°C° 0 mm 2 mps 752 mmHg 79%
    08:00 +10°C° 0 mm 2 mps 752 mmHg 72%
    09:00 +13°C° 0 mm 2 mps 752 mmHg 66%
    10:00 +15°C° 0 mm 2 mps 752 mmHg 59%
    11:00 +15°C° 0 mm 2 mps 752 mmHg 55%
    12:00 +16°C° 0 mm 3 mps 752 mmHg 51%
    13:00 +17°C° 0 mm 3 mps 751 mmHg 47%
    14:00 +17°C° 0 mm 2 mps 751 mmHg 47%
    15:00 +17°C° 0 mm 2 mps 751 mmHg 47%
    16:00 +18°C° 0 mm 1 mps 751 mmHg 48%
    17:00 +16°C° 0 mm 1 mps 751 mmHg 52%
    18:00 +14°C° 0 mm 1 mps 751 mmHg 56%
    19:00 +13°C° 0 mm 1 mps 751 mmHg 60%
    20:00 +13°C° 0 mm 1 mps 751 mmHg 61%
    21:00 +12°C° 0 mm 2 mps 751 mmHg 62%
    22:00 +12°C° 0 mm 2 mps 751 mmHg 63%
    23:00 +12°C° 0 mm 2 mps 751 mmHg 64%

    22 September, Sunday

    Time Temperature Precipitation Wind Pressure Humidity
    00:00 +10°C° 0 mm 2 mps 751 mmHg 65%
    01:00 +10°C° 0 mm 2 mps 751 mmHg 67%
    02:00 +9°C° 0 mm 2 mps 751 mmHg 66%
    03:00 +9°C° 0 mm 2 mps 750 mmHg 66%
    04:00 +9°C° 0 mm 2 mps 750 mmHg 66%
    05:00 +10°C° 0 mm 3 mps 750 mmHg 65%
    06:00 +10°C° 0 mm 3 mps 750 mmHg 64%
    07:00 +11°C° 0 mm 3 mps 750 mmHg 63%
    08:00 +13°C° 0 mm 3 mps 750 mmHg 56%
    09:00 +16°C° 0 mm 3 mps 750 mmHg 50%
    10:00 +19°C° 0 mm 3 mps 750 mmHg 44%
    11:00 +20°C° 0 mm 3 mps 750 mmHg 41%
    12:00 +21°C° 0 mm 4 mps 749 mmHg 39%
    13:00 +22°C° 0 mm 4 mps 749 mmHg 36%
    14:00 +22°C° 0 mm 3 mps 748 mmHg 39%
    15:00 +21°C° 0 mm 3 mps 748 mmHg 41%
    16:00 +21°C° 0 mm 3 mps 747 mmHg 44%
    17:00 +19°C° 0 mm 3 mps 747 mmHg 48%
    18:00 +18°C° 0 mm 3 mps 747 mmHg 53%
    19:00 +16°C° 0 mm 3 mps 747 mmHg 57%
    20:00 +14°C° 0 mm 3 mps 747 mmHg 59%
    21:00 +14°C° 0 mm 3 mps 747 mmHg 61%
    22:00 +13°C° 0 mm 3 mps 747 mmHg 63%
    23:00 +13°C° 0 mm 3 mps 747 mmHg 63%
    Show more